Laramie, WY

3:59 PM MDT on May 26, 2018 (GMT -0600)
Laramie Regional

Weather History for KLAR - September, 2013

Change the Weather History Date:

Monday, September 30, 2013

  Actual Average Record
Temperature  
Mean Temperature 58 °F 48 °F  
Max Temperature 71 °F 62 °F 79 °F (1980)
Min Temperature 45 °F 33 °F -2 °F (1985)
Degree Days  
Heating Degree Days 7 18  
Month to date heating degree days 253 353  
Since 1 July heating degree days 324 525  
Cooling Degree Days 0 0  
Month to date cooling degree days 24 1  
Year to date cooling degree days 162 67  
Growing Degree Days 8 (Base 50)    
Moisture  
Dew Point 27 °F    
Average Humidity 38    
Maximum Humidity 53    
Minimum Humidity 22    
Precipitation  
Precipitation 0.00 in 0.03 in 0.91 in (2004)
Month to date precipitation 3.05 1.11  
Year to date precipitation 9.38 9.26  
Sea Level Pressure  
Sea Level Pressure 29.73 in    
Wind  
Wind Speed 19 mph (WSW)    
Max Wind Speed 36 mph    
Max Gust Speed 43 mph    
Visibility 10 miles    
Events      
T = Trace of Precipitation, MM = Missing Value Source: NWS Daily Summary

Daily Weather History Graph

Daily Weather History Graph

Search for Another Location

Airport or City:

Astronomy

Sep. 30, 2013 Rise Set
Actual Time 6:58 AM MDT 6:45 PM MDT
Civil Twilight 6:31 AM MDT 7:13 PM MDT
Nautical Twilight 5:59 AM MDT 7:45 PM MDT
Astronomical Twilight 5:26 AM MDT 8:17 PM MDT
Moon 2:35 AM MDT (9/30) 4:19 PM MDT (9/30)
Length of Visible Light 12h 42m
Length of Day
11h 47m
Waning Crescent, 18% of the Moon is Illuminated
Sep 30
Waning Crescent
Oct 4
New
Oct 11
First Quarter
Oct 18
Full
Oct 26
Last Quarter

Hourly Weather History & Observations

Time (MDT) Temp. Windchill Dew Point Humidity Pressure Visibility Wind Dir Wind Speed Gust Speed Precip Events Conditions
12:53 AM 53.1 °F - 21.9 °F 30% 29.76 in 10.0 mi West 19.6 mph 28.8 mph N/A   Clear
1:53 AM 52.0 °F - 21.9 °F 31% 29.76 in 10.0 mi SW 17.3 mph 25.3 mph N/A   Clear
2:53 AM 51.1 °F - 23.0 °F 33% 29.76 in 10.0 mi WSW 19.6 mph 23.0 mph N/A   Clear
3:53 AM 53.1 °F - 21.9 °F 30% 29.73 in 10.0 mi WSW 24.2 mph 42.6 mph N/A   Clear
4:53 AM 52.0 °F - 21.9 °F 31% 29.73 in 10.0 mi SW 25.3 mph 34.5 mph N/A   Clear
5:53 AM 52.0 °F - 21.9 °F 31% 29.74 in 10.0 mi SW 19.6 mph 28.8 mph N/A   Clear
6:53 AM 51.1 °F - 23.0 °F 33% 29.78 in 10.0 mi SSW 11.5 mph - N/A   Clear
7:53 AM 52.0 °F - 24.1 °F 34% 29.77 in 10.0 mi SSW 5.8 mph - N/A   Clear
8:15 AM 55.4 °F - 23.0 °F 29% 30.00 in 10.0 mi WSW 17.3 mph 36.8 mph N/A   Clear
8:53 AM 57.0 °F - 24.1 °F 28% 29.75 in 10.0 mi SW 21.9 mph 32.2 mph N/A   Clear
9:53 AM 59.0 °F - 27.0 °F 29% 29.76 in 10.0 mi SW 9.2 mph - N/A   Clear
10:53 AM 61.0 °F - 26.1 °F 26% 29.71 in 10.0 mi SW 31.1 mph 39.1 mph N/A   Clear
11:53 AM 63.0 °F - 28.9 °F 28% 29.71 in 10.0 mi SW 23.0 mph 29.9 mph N/A   Clear
12:53 PM 69.1 °F - 28.9 °F 22% 29.65 in 10.0 mi WSW 28.8 mph 42.6 mph N/A   Clear
1:53 PM 68.0 °F - 30.0 °F 24% 29.65 in 10.0 mi WSW 25.3 mph 36.8 mph N/A   Clear
2:53 PM 68.0 °F - 30.0 °F 24% 29.62 in 10.0 mi WSW 28.8 mph 35.7 mph N/A   Clear
3:53 PM 69.1 °F - 30.9 °F 24% 29.60 in 10.0 mi SW 28.8 mph 35.7 mph N/A   Clear
4:53 PM 69.1 °F - 32.0 °F 25% 29.61 in 10.0 mi SW 26.5 mph 33.4 mph N/A   Clear
5:53 PM 68.0 °F - 34.0 °F 28% 29.64 in 10.0 mi West 23.0 mph 28.8 mph N/A   Clear
6:53 PM 62.1 °F - 30.9 °F 31% 29.70 in 10.0 mi West 15.0 mph - N/A   Clear
7:53 PM 60.1 °F - 28.9 °F 31% 29.74 in 10.0 mi West 13.8 mph - N/A   Clear
8:53 PM 55.0 °F - 30.0 °F 38% 29.76 in 10.0 mi West 12.7 mph - N/A   Clear
9:53 PM 54.0 °F - 30.0 °F 40% 29.77 in 10.0 mi WSW 11.5 mph - N/A   Partly Cloudy
10:53 PM 46.9 °F - 30.0 °F 52% 29.81 in 10.0 mi West 10.4 mph - N/A   Clear
11:53 PM 46.0 °F 41.4 °F 30.0 °F 54% 29.82 in 10.0 mi West 9.2 mph - N/A   Clear